Theta_e
315 316 319 323 325 325 330 328 331 335 327 322 321 325 323 322 325 324 325 326 326 325 326 328 328 329 331 338 340 339 338 341 342 345 347 341 338 339 339 338 336 336 337 336 336 329 320 318 316 321 328 331 333 333 334 334 334 336 338 338 339 338 338 338 338 337 336 334 332 333 334 334 333 331 332 332 331 331 332 332 331 331 331 331 331 331 331 331 331 331 332 331 330 329 329 329 330
315 317 320 324 324 325 335 330 328 332 324 319 320 322 322 324 325 323 326 326 325 326 329 330 329 328 331 336 336 340 341 338 339 341 340 338 339 339 338 337 336 336 337 337 334 325 319 317 316 322 326 329 331 332 334 334 335 336 337 338 338 337 337 337 336 336 335 334 333 333 333 332 332 332 333 331 330 331 330 330 330 332 332 331 331 331 331 330 330 330 331 330 330 328 327 329 330
315 317 322 324 326 325 332 330 324 325 321 319 319 320 326 329 326 324 326 326 328 329 330 329 330 327 331 338 337 342 342 338 338 338 337 338 339 338 339 337 336 336 337 337 331 322 318 316 317 322 326 329 331 332 333 333 334 335 336 337 338 337 336 334 334 334 333 333 333 333 332 331 330 332 333 331 331 332 331 330 331 332 331 331 331 331 331 330 330 330 330 329 329 328 327 329 330
315 318 322 322 330 330 327 327 329 325 319 321 318 319 327 330 328 326 327 328 330 329 326 328 329 324 331 340 336 339 341 339 338 338 338 338 339 339 339 337 337 336 337 336 328 320 318 316 317 321 327 330 331 332 332 333 333 334 334 335 336 336 334 333 332 332 333 332 332 331 331 331 331 331 331 331 331 331 330 330 330 330 331 331 331 331 331 330 330 330 329 329 329 329 328 329 330
318 321 323 322 330 333 327 326 334 326 317 324 320 320 327 327 329 327 327 328 330 329 326 329 327 323 331 337 336 340 340 339 339 338 338 338 339 340 339 338 338 337 338 335 325 320 318 316 316 320 326 330 332 332 333 333 334 332 333 335 334 335 333 332 331 332 333 332 332 330 331 332 332 331 331 332 331 331 330 330 330 330 330 330 330 330 330 330 330 330 329 329 329 328 329 330 329
321 323 324 321 325 327 326 323 329 325 318 327 321 322 327 324 327 326 326 326 328 329 327 328 326 328 336 336 337 339 338 338 338 337 338 338 340 340 340 339 339 339 338 333 324 321 319 317 316 317 323 329 332 332 332 332 333 330 331 335 334 335 334 332 331 332 332 332 331 331 331 331 330 330 331 332 331 331 330 329 330 331 331 330 331 331 330 330 329 330 329 328 328 327 328 329 329
321 324 328 325 326 326 326 322 327 327 318 324 323 323 325 322 324 324 326 325 324 325 325 327 326 332 335 335 337 338 337 337 337 337 338 339 340 341 340 340 339 339 338 331 324 321 320 318 316 316 319 326 329 330 330 330 332 329 329 334 333 335 335 332 331 332 331 331 331 331 330 329 330 330 331 331 330 331 330 329 329 329 329 330 331 331 330 329 328 328 328 328 328 327 327 328 328
320 325 332 330 332 328 325 325 329 330 319 320 323 323 323 322 324 323 325 325 324 323 324 326 325 330 332 336 340 338 337 338 337 338 339 339 341 341 340 340 340 340 338 331 324 322 321 320 317 315 316 321 327 329 330 331 332 330 330 333 334 335 334 332 331 330 330 330 330 330 330 329 329 330 331 331 330 330 328 328 329 329 329 329 330 330 330 329 328 328 327 327 327 325 327 327 327
321 323 330 329 333 327 323 328 326 324 320 321 323 323 323 323 323 322 324 323 323 324 325 325 324 331 333 338 339 336 337 338 338 339 338 339 340 341 340 340 340 340 337 330 325 323 322 321 318 316 315 319 327 329 331 334 333 332 330 331 333 334 333 332 330 328 328 329 330 329 330 329 328 329 331 331 330 330 329 328 329 329 329 329 328 328 329 329 328 327 326 326 325 325 326 327 326
323 321 328 328 327 325 324 327 323 320 321 321 322 322 322 321 321 321 322 321 323 324 325 324 328 336 336 339 339 336 337 337 339 338 338 339 339 340 340 340 340 340 336 331 326 323 322 322 320 317 316 320 326 329 331 334 333 333 331 332 333 332 332 331 329 327 326 328 329 329 330 329 328 328 329 330 330 330 329 327 328 329 329 329 329 328 328 328 328 326 326 326 325 325 325 326 326
328 323 326 327 322 323 325 325 322 321 320 320 321 321 321 322 320 320 321 321 324 325 324 321 327 337 339 341 340 337 337 337 338 338 338 338 338 340 340 340 340 340 336 331 327 324 323 323 322 319 316 319 324 327 330 332 331 331 331 332 333 332 332 329 329 327 325 328 329 329 329 327 328 327 328 330 329 329 329 327 326 328 329 328 327 326 326 327 327 326 326 326 325 324 325 326 326
331 329 325 325 326 328 327 323 320 321 320 321 321 320 322 322 320 320 321 322 326 325 325 322 322 333 339 342 341 336 337 337 337 337 337 337 338 339 339 340 340 339 337 333 330 325 324 324 324 322 318 318 320 324 328 330 328 328 329 330 331 330 331 329 327 326 325 328 329 328 327 327 327 327 328 328 328 329 328 326 326 326 327 327 326 326 327 327 326 325 326 325 324 324 325 325 326
330 333 325 325 333 330 325 321 321 322 319 322 322 321 322 323 321 319 321 323 325 324 324 323 320 333 340 340 339 335 337 337 337 337 336 337 338 339 339 340 341 339 337 335 332 327 326 325 324 324 321 318 318 320 324 326 324 325 326 327 329 327 328 328 326 325 325 325 326 326 327 327 327 327 327 328 328 327 327 327 327 326 326 325 326 327 326 326 325 325 325 324 324 324 324 325 325
328 335 326 327 336 328 325 321 320 321 317 319 321 321 322 321 320 317 320 321 322 323 321 320 323 338 342 338 339 336 337 337 337 337 336 338 338 340 340 340 340 339 338 336 335 331 328 327 325 325 324 321 319 318 320 321 321 322 322 322 323 324 325 326 324 324 325 324 323 325 326 326 326 326 326 327 328 327 326 328 328 326 325 324 322 325 326 325 325 324 323 323 324 324 324 324 324
327 334 326 327 332 325 326 323 322 323 317 320 321 321 322 318 319 318 320 322 321 320 319 318 321 332 338 341 342 336 336 337 337 336 336 337 338 340 340 340 340 340 339 337 336 334 331 329 327 325 325 324 322 319 319 318 318 321 321 319 319 320 322 323 323 325 326 324 323 324 325 326 325 325 324 325 327 327 327 327 327 326 325 324 320 323 326 325 324 322 322 322 322 323 323 323 322
328 330 325 325 328 325 327 324 323 324 320 321 320 321 323 317 320 318 317 321 320 317 320 320 320 329 336 342 341 334 335 337 336 336 336 336 337 339 339 340 340 340 340 339 338 336 335 333 330 328 326 325 325 323 321 318 318 320 321 320 319 318 318 319 322 325 325 323 322 322 323 324 324 325 324 324 325 326 326 325 326 325 325 323 320 321 323 322 321 321 321 322 322 322 322 321 319
325 326 327 324 328 328 327 325 325 325 321 321 319 321 322 318 319 317 315 319 318 320 328 326 326 336 341 338 335 334 336 336 335 336 336 336 337 338 339 340 340 340 340 340 340 338 338 336 333 331 329 327 326 326 324 321 320 319 320 319 319 319 318 317 318 322 324 320 318 319 320 322 321 321 322 323 324 323 323 324 324 324 323 322 319 318 319 318 319 320 320 321 321 321 321 319 318
323 328 329 325 328 326 324 324 326 325 320 320 320 321 322 320 319 316 316 317 317 322 328 330 334 337 336 335 334 335 336 335 336 336 335 336 336 337 338 339 338 339 340 340 340 340 339 338 336 334 333 332 331 330 326 324 323 321 320 319 319 319 318 317 316 318 319 318 321 323 325 325 322 320 319 319 321 321 320 322 322 322 321 319 317 317 316 317 318 319 319 320 321 321 322 321 320
326 329 326 331 330 320 319 320 321 322 320 320 320 320 321 320 319 317 317 316 318 322 323 329 339 339 335 335 335 335 335 335 335 335 335 335 336 336 337 338 337 336 338 339 340 341 339 339 339 336 335 336 335 335 331 326 325 324 322 321 320 319 318 318 317 316 315 321 327 328 328 328 326 324 321 316 317 319 318 320 321 319 319 318 317 316 316 316 318 318 319 321 322 323 324 323 322
326 325 324 335 328 316 318 317 319 320 319 320 319 319 320 319 318 317 318 317 317 321 323 329 338 340 338 335 334 335 335 335 335 335 335 334 335 336 336 338 337 335 337 338 339 340 340 339 339 337 336 337 336 337 335 331 327 326 325 324 323 321 320 318 319 317 317 325 330 329 329 328 327 327 325 319 314 316 317 318 318 317 317 317 317 317 316 316 317 317 319 322 324 324 324 324 323
322 324 328 332 322 318 318 315 318 318 318 320 319 320 319 318 317 317 318 318 316 317 321 328 336 338 338 335 334 334 335 334 335 335 334 334 335 335 336 337 337 335 336 338 338 339 340 339 339 339 337 338 337 337 337 335 331 328 329 328 326 325 322 320 321 320 320 327 330 330 329 328 328 326 327 323 312 313 315 315 316 314 314 315 316 317 316 316 316 316 318 322 323 323 324 324 324
320 324 326 323 320 321 317 315 318 317 319 320 320 320 318 317 316 317 317 319 319 316 317 321 331 336 337 335 334 334 334 334 334 334 334 334 334 334 335 336 337 336 336 337 338 338 339 339 339 339 338 338 338 337 336 336 334 332 331 332 329 328 325 323 325 324 323 326 329 330 328 328 328 324 327 324 314 314 315 314 314 313 314 314 316 318 316 316 317 316 317 320 322 323 323 323 323
321 323 321 318 318 320 316 317 318 318 319 319 320 318 317 317 316 317 317 319 319 315 316 319 327 334 335 334 334 334 334 333 334 334 334 334 333 334 334 335 336 336 336 337 338 338 337 338 339 339 339 338 338 337 337 336 334 333 332 333 332 330 329 327 328 328 327 325 327 329 329 329 327 323 327 323 318 321 320 317 313 314 318 317 318 321 320 319 319 318 317 319 322 322 322 322 322
320 321 319 318 317 318 317 317 318 319 319 319 319 317 317 318 317 316 315 317 316 314 318 319 325 333 334 333 334 333 333 333 334 334 334 334 333 333 334 334 334 335 335 336 337 338 337 337 338 338 339 338 338 337 337 336 335 333 333 333 333 332 331 330 329 330 330 328 327 328 329 330 326 324 327 325 322 325 325 323 318 317 321 320 320 322 323 323 322 320 318 318 320 320 321 321 319
318 320 318 317 316 316 316 316 318 319 318 317 318 317 318 317 316 316 315 317 315 316 322 323 326 332 334 334 334 333 332 333 334 334 334 334 333 333 334 334 334 334 335 335 335 336 337 337 337 338 338 338 338 338 337 337 336 334 334 334 333 333 332 331 330 330 331 330 329 328 328 328 326 325 327 326 324 325 326 326 323 321 322 321 320 321 323 324 324 323 319 318 319 319 319 318 317
318 319 318 317 316 315 314 315 317 317 317 317 318 317 316 316 315 317 317 316 315 320 327 328 329 333 335 334 333 331 332 333 333 334 334 334 334 333 334 334 334 334 334 335 334 335 336 337 337 337 337 338 338 338 337 337 336 335 334 334 334 333 332 332 331 330 330 330 330 330 329 327 326 327 327 327 326 325 326 326 325 323 322 322 319 319 321 322 322 322 319 317 318 319 318 317 317
319 318 317 316 314 314 315 315 315 317 316 317 319 317 316 315 314 317 318 315 316 321 325 329 331 333 334 333 332 332 332 332 333 334 334 334 334 334 334 334 334 334 335 335 335 335 336 336 337 337 336 336 337 337 337 337 337 335 335 334 334 333 332 332 331 330 330 330 330 330 330 329 327 327 327 328 327 326 325 325 325 325 323 322 320 319 320 320 319 318 317 316 318 318 318 318 318
318 317 316 315 314 314 315 315 315 316 316 316 319 317 316 316 315 319 319 315 318 323 322 324 329 331 332 333 332 331 331 332 333 334 334 334 334 335 335 335 335 335 335 335 335 335 335 336 336 337 336 336 336 336 337 337 336 335 335 334 334 333 332 331 331 331 330 330 330 330 330 330 328 328 328 327 328 327 326 325 326 325 324 323 322 321 321 320 319 318 317 316 318 319 318 319 319
317 318 317 315 315 315 315 315 316 316 316 316 317 315 316 317 317 319 317 313 316 322 322 321 323 325 327 330 332 331 331 332 333 333 334 335 335 335 335 335 336 335 336 335 335 335 335 335 335 336 336 336 336 336 336 336 335 335 335 335 334 334 332 331 331 331 331 330 330 330 330 331 330 328 328 328 328 327 327 326 326 326 325 324 323 322 322 322 320 320 319 318 318 319 318 317 318
316 316 317 317 315 315 316 315 315 316 315 317 315 315 320 318 317 317 315 314 315 318 321 321 320 320 321 325 329 330 329 330 332 333 334 335 335 336 335 336 336 336 336 336 335 335 335 335 335 335 335 336 337 336 336 335 335 335 335 335 334 334 333 332 332 331 331 331 330 330 330 330 330 329 329 328 328 328 327 327 326 326 326 326 324 324 323 323 322 322 321 320 319 318 317 316 317
316 314 317 320 317 317 318 315 316 316 314 316 313 316 322 320 317 316 315 315 315 317 319 320 320 318 318 322 326 328 327 328 332 333 333 335 335 336 336 336 336 336 336 336 336 336 335 335 335 335 335 336 336 336 336 335 335 335 335 335 335 335 333 332 333 332 331 331 330 330 330 330 330 329 329 328 328 328 328 327 327 327 326 326 325 325 324 324 323 323 323 322 321 320 319 318 317
316 316 317 318 316 319 318 314 316 317 315 314 313 316 320 318 316 314 314 315 315 317 318 319 320 319 318 322 325 327 326 325 330 332 333 334 335 335 336 336 336 337 337 336 336 336 336 335 335 335 334 335 336 336 336 336 336 336 335 335 335 335 334 333 333 332 332 331 330 329 330 330 330 329 329 329 329 328 328 328 328 327 326 326 326 325 325 325 324 324 324 323 323 322 321 320 320
316 319 321 319 316 318 317 315 316 316 316 313 313 317 318 316 315 313 313 315 316 317 317 318 319 319 319 324 326 327 328 327 328 330 332 333 334 335 335 336 336 336 336 336 336 336 336 336 335 335 335 335 335 336 336 336 336 336 336 335 335 335 335 334 333 333 333 332 331 330 329 329 329 329 329 328 328 328 329 329 328 328 327 326 326 326 326 326 325 325 325 324 324 323 322 321 321
316 317 320 322 318 317 317 317 317 315 315 314 313 316 318 316 314 314 315 315 316 316 316 316 317 317 319 324 327 327 329 330 329 328 331 333 333 335 335 335 336 336 336 336 336 336 336 336 336 335 335 334 334 335 335 336 336 335 336 336 335 335 335 335 334 334 334 333 332 331 330 330 329 329 329 328 327 327 328 328 328 328 327 327 326 327 326 327 326 325 325 325 324 323 322 322 322
319 316 316 319 316 315 318 317 316 316 314 315 314 315 318 318 314 314 314 314 315 316 316 315 315 317 319 322 325 325 326 329 327 326 330 332 333 335 335 334 336 336 336 335 336 336 336 336 336 335 335 334 334 334 335 335 335 334 335 335 335 335 335 335 334 334 334 333 333 332 331 331 331 330 330 329 328 328 328 327 327 328 328 328 328 328 327 327 327 326 326 325 324 323 322 322 321
322 321 317 319 317 314 318 317 315 315 314 316 316 314 315 316 315 315 314 314 314 315 315 315 315 316 317 319 321 322 323 324 323 325 329 331 332 334 334 334 334 335 336 335 335 336 336 336 335 335 334 334 334 334 335 335 334 333 334 335 335 335 335 335 334 334 334 333 332 332 332 331 331 331 331 330 329 329 329 328 327 327 327 328 328 328 327 327 327 327 327 326 325 323 322 322 321
318 319 316 319 319 315 316 316 315 315 315 316 316 315 315 315 316 316 314 314 315 314 314 315 315 315 315 317 318 319 320 318 318 323 328 330 332 332 333 333 333 334 335 335 335 334 335 336 335 335 334 334 334 334 335 334 334 333 333 334 334 334 335 335 334 334 334 333 332 331 332 332 331 331 332 331 330 330 330 329 327 326 327 328 328 327 327 328 327 327 327 326 325 324 324 323 322
314 317 317 318 320 318 315 314 315 315 315 316 316 314 314 315 315 315 314 314 314 314 314 314 316 316 316 316 317 317 316 317 316 319 324 328 330 331 332 332 332 333 333 334 334 333 334 335 335 335 334 334 334 333 334 334 334 333 332 332 333 334 335 334 334 334 334 333 332 332 332 332 332 331 332 332 331 331 330 329 327 325 326 327 328 327 327 328 327 327 326 325 324 324 324 324 323
315 317 316 316 320 318 314 314 316 315 314 317 318 315 316 316 315 315 315 314 314 314 314 315 316 317 318 317 318 317 317 323 323 319 320 325 329 331 331 333 332 331 332 333 333 333 333 334 335 335 334 334 334 334 333 333 333 333 332 331 331 333 334 333 333 333 333 333 333 333 332 332 332 332 332 332 331 331 331 330 327 326 327 328 329 328 327 328 328 326 325 325 324 324 324 323 323
318 319 316 317 318 317 315 314 314 314 314 315 317 316 316 315 315 317 315 314 314 313 314 314 316 317 318 318 318 318 319 327 328 322 321 322 326 330 331 332 333 332 332 333 333 333 334 334 334 334 334 334 333 333 333 332 332 333 333 331 329 331 331 332 332 332 332 332 332 332 332 332 332 332 332 332 332 331 331 330 329 328 329 330 330 329 327 327 328 327 326 326 325 325 324 323 323
321 325 322 322 319 318 318 316 315 314 313 315 314 313 318 318 313 315 315 313 313 313 314 314 315 316 317 318 318 317 320 326 327 325 322 320 323 328 330 332 333 333 333 334 334 334 335 335 334 334 334 334 333 333 333 332 333 333 333 332 331 331 331 331 331 331 332 332 332 332 332 332 331 331 331 331 331 330 330 330 330 330 329 329 329 329 327 326 326 326 326 326 325 325 324 323 323
318 323 325 326 322 320 321 319 319 315 313 317 313 312 328 332 319 314 312 312 313 313 315 314 314 316 316 317 318 319 320 323 325 323 319 317 320 324 327 329 330 331 333 334 335 334 334 335 334 334 334 334 333 333 333 332 332 333 332 332 332 331 331 331 331 331 332 332 332 332 331 331 330 330 331 331 331 331 331 330 330 330 330 330 329 328 327 326 326 327 326 326 325 325 324 323 322
314 317 322 324 324 324 323 320 322 319 314 315 313 312 324 327 322 320 317 313 313 312 314 316 315 317 319 318 321 324 323 323 322 319 316 314 316 318 320 324 327 329 331 331 333 333 333 334 334 334 334 334 334 333 332 333 332 332 332 331 331 331 331 331 331 331 331 331 332 332 332 331 331 331 331 331 331 330 330 329 329 329 329 329 328 328 327 328 327 327 326 326 325 325 324 323 322
316 320 324 324 324 325 325 321 324 324 318 317 319 316 316 317 319 323 320 314 314 314 315 318 317 318 320 321 323 325 325 325 322 321 319 313 312 313 315 319 323 325 327 328 329 331 331 332 333 333 334 334 334 333 332 332 332 332 332 331 330 331 330 330 330 330 330 330 331 332 332 331 331 330 329 328 328 329 329 329 328 329 329 329 328 328 327 327 326 325 325 326 325 325 325 324 323
320 324 326 325 324 328 328 325 324 322 317 321 325 317 313 323 329 325 318 314 314 316 316 318 319 319 319 320 322 325 327 329 328 328 322 313 311 313 313 314 316 318 320 323 325 327 328 329 330 331 332 333 333 334 333 332 332 332 331 331 330 330 330 330 330 329 328 328 328 329 328 328 328 327 327 327 327 328 328 327 328 328 328 328 328 328 326 326 325 324 325 325 325 324 324 323 323
321 325 326 327 330 330 327 328 329 318 314 326 331 319 313 323 331 323 314 314 317 318 316 315 316 317 318 321 324 327 329 328 328 325 317 312 312 312 312 313 313 313 314 315 318 321 325 327 327 329 331 332 332 333 333 332 331 332 331 331 330 330 330 329 328 327 327 327 327 326 326 326 326 326 326 326 326 326 326 326 326 326 326 326 326 326 325 325 324 324 324 324 324 324 323 323 323
322 325 326 324 328 333 333 336 332 317 320 336 334 323 313 316 326 324 315 318 320 317 316 317 319 320 322 327 328 328 329 326 325 322 314 312 314 313 313 313 313 313 312 312 312 315 321 324 326 328 328 330 331 331 332 332 331 331 331 331 330 330 329 328 326 326 326 326 326 326 325 325 325 325 324 325 324 324 323 322 322 322 322 323 323 323 323 323 323 322 322 322 322 322 322 322 322
327 328 325 319 323 335 337 333 324 317 328 335 326 318 315 315 324 324 318 318 318 316 316 321 325 325 325 328 327 327 331 329 327 325 319 313 313 313 314 313 313 313 312 312 312 312 316 320 324 327 327 328 329 329 330 331 330 330 330 330 330 329 327 326 326 325 325 325 325 324 324 323 322 321 321 321 321 320 319 318 317 316 317 318 319 319 319 319 320 320 320 320 320 320 320 320 319
327 323 319 317 320 326 326 325 324 324 326 322 315 317 318 318 320 319 318 318 316 316 319 324 326 325 325 326 326 326 328 329 326 325 323 316 311 312 313 313 314 313 312 312 312 311 313 316 320 324 326 326 327 328 329 329 329 329 329 328 327 327 326 325 325 324 324 324 323 322 322 321 320 319 319 319 318 318 317 317 316 315 315 314 315 315 315 315 315 316 316 316 316 316 317 317 316
320 316 316 321 323 318 316 321 323 322 322 316 312 315 319 319 318 317 318 315 314 318 324 327 324 325 327 327 327 325 324 327 327 325 326 320 311 311 313 314 313 313 313 312 312 311 311 313 318 321 323 324 325 326 326 327 327 326 326 326 325 325 324 324 324 323 323 322 321 320 319 319 318 318 317 317 317 317 317 316 316 315 315 315 314 313 312 312 312 312 312 312 313 313 314 314 314
319 319 318 322 326 323 320 323 323 320 321 316 310 315 323 321 316 318 316 313 316 321 325 323 320 323 327 326 326 326 324 326 326 324 323 317 311 312 314 314 315 315 314 313 312 312 311 313 317 319 320 322 323 323 324 325 324 324 324 324 324 324 323 323 322 321 321 320 319 319 318 317 317 316 316 316 316 316 316 315 315 314 314 314 313 312 311 311 311 310 310 310 310 310 311 312 312
319 321 319 318 324 330 328 325 329 327 320 317 314 319 327 319 313 316 314 313 315 316 318 320 320 322 324 325 325 325 325 324 323 323 321 314 311 313 315 314 316 316 316 315 313 314 314 315 317 318 320 321 321 322 323 323 322 323 323 323 323 323 322 321 320 319 319 319 319 318 317 316 316 315 314 314 313 313 312 311 311 311 311 311 311 311 311 312 311 310 310 308 307 307 307 307 307
318 318 321 322 321 327 325 316 318 318 317 321 317 318 323 316 314 318 313 313 315 311 313 318 320 321 321 324 324 323 325 323 321 322 319 312 309 311 313 314 316 316 317 317 317 317 317 317 318 319 320 321 321 322 322 322 322 321 321 321 320 320 319 318 318 318 319 318 317 315 314 313 312 311 310 309 309 308 308 308 308 307 307 307 307 308 308 309 309 308 308 307 305 304 304 303 304
319 318 321 321 316 321 324 317 314 313 317 324 317 315 321 316 318 321 313 312 315 312 313 314 315 320 321 323 324 323 323 321 320 319 314 308 307 309 311 312 314 314 314 316 318 318 318 318 319 319 320 320 320 320 320 320 319 319 318 318 317 317 317 317 317 316 315 314 312 310 310 309 308 307 307 307 306 306 306 305 306 305 305 305 305 305 305 305 305 305 304 303 303 302 300 300 300
318 320 319 320 318 320 322 318 318 315 315 322 319 316 319 318 321 324 314 315 317 313 313 312 313 319 321 323 324 321 321 319 318 317 314 308 305 307 309 310 311 312 312 314 317 318 318 318 317 317 318 319 318 318 318 318 317 317 317 317 317 317 316 315 313 312 310 309 308 308 307 307 306 306 306 306 305 305 305 304 304 303 302 302 301 301 300 300 299 298 298 298 297 296 295 295 295
315 317 314 317 320 323 321 316 320 322 319 322 321 316 321 325 324 325 318 320 322 314 314 313 312 316 319 322 323 321 320 319 316 316 315 308 304 306 308 308 309 310 310 312 315 317 317 317 317 316 316 317 318 318 317 317 317 316 316 315 314 313 312 310 309 308 308 307 306 306 306 306 305 305 305 305 304 303 302 300 299 297 296 296 295 294 294 294 294 293 293 293 293 292 292 292 292
315 316 313 314 315 317 319 317 322 327 322 323 319 317 332 336 323 320 317 317 321 316 314 314 311 313 318 320 321 319 318 318 315 314 313 306 303 306 307 307 308 308 309 310 312 313 314 315 315 315 316 316 316 316 315 314 314 313 312 310 310 309 308 307 306 306 306 306 305 306 305 305 304 303 302 301 299 298 296 295 294 293 293 293 293 293 292 292 292 292 292 291 291 291 291 291 291
314 314 314 316 314 316 317 316 320 322 319 326 323 318 334 336 318 316 315 313 318 315 313 316 313 312 318 320 319 318 318 317 314 313 310 303 302 305 306 306 307 307 307 308 309 310 310 311 312 312 313 313 312 312 312 311 309 309 308 307 307 306 306 306 306 306 306 305 305 304 303 301 299 298 296 295 294 293 293 293 293 293 293 292 292 292 292 292 292 292 291 291 291 291 290 291 291
Wind_Speed
5 7 6 5 7 8 5 2 2 3 1 0 2 1 0 2 4 4 5 4 3 2 1 4 4 4 5 7 10 9 6 3 2 3 2 6 20 24 21 22 20 19 20 17 14 13 11 10 11 14 17 17 17 17 14 13 14 15 15 16 18 18 18 17 17 17 17 17 18 19 18 17 18 18 18 20 19 19 18 19 19 19 18 18 19 18 18 18 18 17 16 17 17 18 19 20 20
6 8 6 7 6 3 2 2 2 3 3 1 2 2 3 2 5 6 6 5 3 2 2 6 7 8 9 10 8 7 8 7 2 4 6 18 24 22 24 22 21 21 20 17 15 13 12 11 12 15 17 18 18 18 15 13 14 16 16 16 17 17 17 17 17 17 17 17 18 18 17 17 18 17 17 18 18 18 17 18 18 18 17 18 18 18 18 18 18 17 17 17 17 18 19 20 21
6 7 6 8 4 1 1 3 1 0 3 2 3 2 3 6 5 6 7 7 6 5 4 6 7 6 8 9 6 5 4 5 6 7 9 23 20 20 26 21 21 21 19 18 15 14 13 12 14 16 17 18 18 17 15 13 14 14 14 15 16 17 18 17 17 17 16 17 17 17 17 17 17 16 17 17 18 18 18 18 17 17 17 17 18 17 17 18 18 18 18 18 18 19 19 20 22
6 6 8 7 3 2 2 2 2 2 2 3 2 3 3 8 7 7 7 7 6 6 4 5 4 2 8 11 5 5 5 2 5 7 8 18 20 24 26 22 23 20 19 17 15 15 14 14 15 16 18 18 17 17 15 13 12 12 12 14 15 17 18 17 17 17 16 16 16 17 17 17 17 16 16 17 17 17 17 17 17 17 17 17 17 17 17 17 18 18 18 18 19 19 19 21 21
5 6 7 3 2 1 1 1 0 3 1 4 3 2 5 9 9 8 5 5 5 6 3 3 2 2 6 6 2 3 4 4 5 7 11 19 25 27 25 23 24 21 19 17 16 15 14 14 14 16 19 19 17 16 15 14 12 12 12 13 15 16 16 17 16 16 17 16 16 16 16 16 15 15 16 16 16 16 16 16 17 17 16 16 16 17 17 17 18 18 17 17 18 18 20 21 21
7 8 4 1 1 1 1 1 1 1 4 4 5 3 6 8 9 9 6 5 5 5 4 4 4 4 5 2 3 3 2 6 7 10 17 24 28 26 25 25 23 21 19 18 16 15 15 15 14 16 18 19 18 16 16 16 13 11 13 13 14 15 15 16 16 16 16 16 16 16 16 16 15 15 15 15 15 15 16 15 16 16 16 16 16 16 16 17 17 17 16 16 16 17 20 21 20
8 7 2 1 2 1 2 2 3 2 2 2 8 7 7 7 8 9 7 5 5 4 4 4 7 7 3 1 4 5 2 11 11 14 22 27 28 25 25 24 23 21 19 19 17 16 16 14 15 15 16 17 18 18 17 16 14 12 13 13 13 14 14 15 16 16 15 16 16 16 16 16 16 14 13 13 14 14 15 15 15 16 16 15 16 16 16 15 15 16 15 15 15 17 20 20 19
6 2 1 3 2 2 2 2 2 3 2 4 7 9 9 9 8 8 6 4 2 1 2 3 7 7 2 3 3 5 9 17 17 21 27 29 27 24 24 25 24 22 20 20 17 17 17 15 15 15 16 17 18 19 17 15 14 13 14 14 13 13 14 13 15 15 15 16 16 16 15 15 15 13 12 13 13 14 15 16 16 16 15 15 14 15 15 14 14 14 14 14 15 17 19 18 18
3 1 1 3 0 2 0 0 1 2 2 5 6 8 10 8 6 7 6 5 4 3 2 3 7 6 2 5 4 3 11 21 25 27 28 27 26 25 25 24 23 22 21 20 18 17 17 15 15 15 16 17 19 19 16 14 14 14 14 14 13 12 12 12 14 14 15 16 16 16 15 15 15 13 13 14 13 13 14 15 16 15 14 14 13 14 14 14 13 13 13 14 15 17 16 16 15
3 1 1 2 0 2 3 2 1 1 2 5 5 7 9 7 6 8 8 6 5 5 3 4 8 7 5 5 3 2 11 23 28 26 26 26 25 25 25 22 20 21 22 21 19 18 18 16 15 15 16 18 20 19 17 15 14 14 14 14 14 12 11 11 13 13 15 17 16 15 14 15 14 14 14 14 13 12 12 13 14 14 13 13 13 13 13 13 13 12 13 14 15 15 15 14 14
2 1 2 1 0 2 4 1 3 2 2 4 2 2 6 7 7 7 8 6 5 6 2 3 8 7 7 4 1 5 16 22 25 26 26 23 22 25 25 21 18 19 22 21 20 18 18 16 15 15 15 17 19 18 17 15 14 14 13 14 14 13 12 11 12 13 15 17 15 14 14 14 14 14 14 13 13 12 12 13 13 13 12 12 11 11 12 12 12 12 13 14 15 15 15 14 14
1 3 3 2 2 4 4 4 5 2 1 3 1 3 3 7 8 8 9 7 5 6 2 2 6 6 6 3 2 8 18 19 23 27 24 18 20 25 23 21 18 18 20 20 20 19 18 16 15 14 14 16 16 16 16 14 14 14 13 13 13 12 11 10 11 13 15 16 14 13 14 15 14 14 14 13 13 13 12 11 11 12 11 11 11 11 11 11 11 12 12 14 15 15 15 14 14
1 2 4 1 4 3 2 5 5 4 1 2 3 2 2 6 6 9 9 8 7 6 3 4 5 6 5 2 1 6 13 18 23 26 22 17 20 24 21 20 18 17 19 19 19 18 18 16 15 14 14 14 14 14 14 13 12 13 13 13 12 11 11 10 10 13 14 14 13 13 14 14 14 13 12 11 11 11 11 11 11 11 11 11 11 11 10 10 11 11 12 14 15 14 14 13 12
2 2 4 2 3 1 4 4 4 5 2 3 3 1 3 4 2 6 9 8 4 5 3 2 5 8 4 2 2 3 10 21 24 25 20 18 23 23 20 18 16 16 17 17 18 17 17 16 15 14 14 14 14 13 13 11 11 12 12 12 12 11 11 10 10 13 13 12 11 12 13 13 13 12 11 10 10 10 11 12 10 9 8 7 8 10 10 10 11 11 13 14 14 13 12 11 10
3 1 3 2 3 1 2 4 4 5 3 3 4 3 5 3 2 6 7 8 1 3 2 3 4 4 5 6 4 7 15 25 25 24 20 20 25 22 19 17 15 14 14 15 15 16 16 16 15 14 14 14 13 13 12 11 11 11 11 11 11 11 10 10 11 12 12 12 11 11 12 12 11 10 9 9 9 9 10 10 7 6 5 5 7 10 10 10 10 11 13 13 13 12 11 10 10
2 1 3 1 2 3 3 3 5 5 2 4 4 4 7 3 3 6 1 6 3 2 3 3 2 3 6 7 9 16 23 28 26 23 21 22 24 22 20 18 17 14 13 15 13 14 14 14 15 14 13 13 13 13 12 12 11 10 10 10 10 10 10 10 10 10 10 11 10 11 11 10 10 9 8 8 7 8 7 6 5 4 4 5 6 9 10 10 11 12 12 12 12 11 10 10 10
3 2 1 2 2 3 3 4 5 4 4 5 4 4 7 2 4 2 1 6 7 4 6 3 4 5 2 6 19 27 29 29 25 23 22 23 23 23 22 20 19 17 15 15 14 13 13 13 14 13 13 12 12 12 12 12 11 10 9 9 9 9 9 9 9 9 9 9 10 10 10 9 9 8 7 7 7 6 6 5 4 4 4 4 5 7 9 10 11 11 12 11 11 10 10 10 10
2 2 2 3 2 2 4 5 6 5 6 6 6 5 8 5 1 1 3 7 7 6 6 4 8 9 8 16 28 31 30 28 24 25 24 22 23 22 22 21 19 18 16 16 16 14 12 13 12 13 13 11 11 11 11 12 11 10 9 8 8 8 8 9 8 9 9 9 10 10 10 8 7 8 6 6 7 6 6 5 4 4 3 4 4 6 9 10 10 10 10 10 10 10 10 10 11
2 2 2 4 4 1 3 4 7 5 8 8 7 6 7 7 5 3 3 5 6 7 4 4 9 8 11 19 26 28 29 27 22 25 25 22 24 22 21 22 20 19 18 16 18 18 14 13 12 13 13 11 11 10 10 10 11 10 9 8 8 8 8 8 8 8 9 10 10 9 8 6 4 4 4 3 6 7 6 6 5 4 3 3 4 6 8 9 9 9 9 9 9 9 8 8 8
2 2 1 6 5 1 5 1 6 7 10 10 7 6 5 5 5 3 4 7 6 7 4 4 7 7 8 12 19 25 26 24 20 22 23 23 24 23 23 23 23 23 22 18 18 20 17 14 13 13 13 13 13 11 10 9 10 10 9 8 7 7 8 8 8 9 11 10 10 9 7 6 3 0 0 1 3 6 7 7 6 4 4 4 4 6 8 8 8 9 9 8 7 7 6 5 4
1 3 3 6 3 3 3 3 4 9 10 10 7 6 6 4 4 4 6 7 3 6 8 9 11 13 11 10 16 21 22 21 18 18 20 21 22 23 23 24 25 24 24 21 18 20 19 16 15 15 16 16 15 14 11 9 10 10 9 8 7 7 8 8 8 9 11 12 10 8 7 8 5 4 3 3 2 6 8 7 6 5 4 5 5 6 7 7 7 8 8 7 6 6 5 2 2
1 3 4 5 2 4 3 4 2 8 9 8 9 8 6 4 3 5 8 6 5 6 9 11 14 16 15 15 17 18 18 19 17 18 19 20 22 22 22 23 23 22 23 23 21 20 20 19 17 18 19 18 18 16 12 10 11 12 9 8 7 8 8 7 7 7 9 12 10 7 9 9 7 6 5 5 4 6 6 6 6 5 5 5 5 6 6 6 6 7 7 6 5 6 6 3 4
1 4 2 3 1 5 4 3 1 6 10 8 8 6 5 6 2 4 7 5 6 6 7 10 15 19 21 19 18 15 15 17 18 20 21 21 23 24 24 24 25 24 24 24 24 22 21 21 19 19 21 20 19 16 13 12 11 11 10 8 8 8 8 7 7 7 5 8 10 8 8 9 9 8 6 5 6 6 4 3 5 6 5 5 5 5 6 5 5 6 7 6 6 5 5 5 7
4 4 2 3 2 2 2 1 1 7 10 7 7 6 6 7 3 2 4 5 6 4 4 12 18 21 22 18 16 16 18 20 21 23 24 23 24 25 26 26 27 27 26 26 25 24 23 23 21 21 21 21 20 17 15 14 13 12 11 10 8 8 8 7 7 8 6 5 8 9 8 8 9 10 8 5 6 6 4 3 4 5 5 4 5 5 5 5 5 6 6 7 8 7 6 7 8
5 5 2 2 2 1 0 1 4 8 7 5 8 7 5 7 5 3 5 6 6 5 7 13 16 17 17 15 15 15 16 19 20 21 23 23 22 23 24 25 27 27 28 28 26 25 25 24 23 23 23 22 20 19 17 16 15 14 14 13 11 10 9 9 7 8 8 7 7 9 9 10 9 10 9 7 7 7 7 7 6 5 5 5 6 7 7 7 8 10 8 8 9 8 8 9 10
6 6 3 3 2 2 1 2 5 6 3 5 9 5 2 3 3 2 6 8 6 6 10 12 13 13 12 12 14 15 15 17 20 22 23 24 23 22 23 24 26 27 28 28 27 26 26 26 25 24 24 23 22 21 20 19 18 18 17 16 15 13 11 10 9 10 10 10 9 9 9 10 10 9 9 9 8 9 10 10 8 8 8 8 9 9 10 10 11 12 11 10 10 10 11 10 10
4 5 4 3 2 2 2 1 3 4 2 5 8 5 1 1 1 2 6 8 7 8 11 11 12 12 11 10 11 15 16 19 24 24 22 23 24 25 25 25 27 28 28 28 27 26 27 27 26 25 25 24 24 23 22 21 20 20 20 19 19 17 15 13 12 12 13 12 10 10 10 10 10 11 10 11 11 10 11 12 11 11 11 11 11 10 11 12 13 12 12 11 11 12 11 11 11
6 8 6 3 1 1 2 4 3 2 2 4 8 5 1 4 0 6 6 8 9 10 11 9 11 10 10 11 10 12 16 20 24 23 22 24 26 28 28 27 28 30 29 29 28 27 28 29 28 26 25 24 24 24 24 23 21 21 21 21 21 20 18 17 15 14 14 14 11 10 11 11 11 13 13 11 12 12 12 13 14 14 13 13 12 11 11 12 12 12 11 11 12 12 12 12 12
7 9 5 2 1 1 2 4 3 2 2 4 7 4 2 1 5 7 6 8 8 10 10 9 9 9 9 10 9 9 14 19 20 22 25 28 29 31 31 30 29 30 31 29 28 29 29 30 30 27 25 25 25 25 24 24 23 21 21 21 21 20 20 18 18 17 16 16 15 13 13 12 12 13 14 12 11 12 13 14 15 16 15 14 13 13 13 13 13 12 12 12 13 14 14 14 14
6 4 5 4 2 2 4 3 2 2 1 3 4 1 4 7 9 6 6 8 8 8 8 8 7 7 8 8 8 9 13 18 20 24 28 29 30 31 33 32 29 30 31 31 30 31 30 30 30 28 27 28 27 25 24 24 24 23 22 21 20 20 19 19 19 19 18 17 17 16 15 14 13 14 15 14 12 12 13 14 15 15 15 14 14 14 14 14 14 14 14 14 14 15 16 16 16
4 3 3 4 3 4 5 3 5 4 1 1 4 2 5 8 8 5 8 9 10 9 8 8 7 6 7 7 8 8 11 18 24 27 29 30 31 31 32 33 31 29 28 31 33 31 31 30 29 29 29 29 28 27 25 25 25 24 23 22 21 20 20 19 20 20 20 18 17 17 17 16 16 15 15 16 15 13 14 16 16 15 15 15 15 15 16 16 16 16 16 16 16 17 18 18 18
2 4 2 1 4 4 4 2 6 5 1 2 5 2 5 7 7 5 7 8 9 10 7 7 8 7 7 6 8 8 8 16 23 26 29 30 31 31 31 32 33 32 28 28 32 32 31 30 29 30 30 30 29 28 27 26 25 24 23 22 22 22 21 21 20 21 20 19 19 18 18 18 18 18 17 16 17 16 15 16 17 17 15 16 17 17 17 18 18 18 17 17 18 19 19 19 18
2 3 3 3 5 3 2 3 5 4 2 2 2 2 3 5 5 5 5 7 8 8 8 8 8 8 8 7 7 7 7 10 14 21 27 29 30 31 31 31 33 34 32 28 30 32 32 30 30 30 31 31 30 29 28 27 26 25 24 23 22 22 22 22 21 20 20 20 20 20 20 20 20 20 19 19 19 19 18 17 17 17 17 17 17 19 19 19 19 19 19 18 19 19 20 20 19
3 1 2 3 5 5 2 3 5 4 4 4 4 2 4 6 4 6 6 7 8 7 8 8 7 8 7 7 7 7 8 7 10 18 26 28 29 31 31 32 32 33 35 32 29 31 32 30 31 31 31 31 31 31 29 28 27 25 24 23 22 22 22 22 21 21 21 21 21 21 21 21 22 21 20 20 20 19 19 19 19 18 19 18 18 19 20 20 20 20 20 19 19 19 20 21 21
3 2 3 2 3 5 5 3 3 6 6 6 6 4 8 8 5 6 6 5 8 9 9 8 8 9 8 8 8 7 8 8 11 20 27 28 29 30 31 32 32 32 34 35 31 30 31 30 30 31 30 30 31 30 30 29 27 26 25 23 22 22 22 21 21 22 22 22 22 22 23 23 23 23 22 21 21 20 19 19 19 20 20 20 20 20 21 21 20 21 21 20 19 19 20 21 22
7 5 4 4 3 4 5 3 3 5 5 5 7 7 9 8 7 7 6 5 7 8 7 7 7 8 8 8 8 9 9 10 15 23 26 27 29 31 31 32 32 32 33 34 34 31 31 31 30 30 31 30 30 29 29 28 27 27 26 24 23 24 24 22 22 22 22 21 21 21 22 22 22 23 23 22 21 21 20 18 17 17 18 17 18 18 20 21 21 21 21 19 18 19 20 21 21
5 5 4 5 5 3 3 2 5 1 5 5 7 7 8 7 8 9 6 5 6 7 7 8 7 7 8 9 9 10 10 10 16 24 26 28 31 31 31 32 31 31 31 33 33 33 32 32 32 31 31 30 30 31 31 30 29 28 28 28 28 26 25 24 24 23 22 21 20 20 20 20 19 19 20 21 20 19 19 17 16 15 15 16 17 18 19 20 21 23 22 20 18 19 20 21 21
4 5 5 5 4 3 3 2 4 3 3 4 3 4 9 8 9 8 5 6 8 9 8 9 10 8 7 9 10 10 8 6 11 18 23 27 30 31 31 31 32 32 32 33 34 34 34 33 34 33 32 32 32 32 32 32 31 30 29 30 30 28 27 26 25 24 23 22 21 21 20 19 19 18 18 19 19 19 19 17 15 16 18 19 18 18 20 21 22 23 22 19 17 18 20 21 22
4 5 6 5 4 2 2 3 4 4 2 3 2 2 9 9 8 8 6 8 8 10 11 10 11 9 8 9 10 9 7 6 8 11 18 25 29 31 31 31 33 34 34 34 34 34 34 34 35 34 34 33 33 32 32 32 32 30 28 27 27 27 26 26 26 24 22 22 21 21 21 20 19 18 18 18 18 19 19 18 17 19 21 22 21 19 21 23 23 21 20 19 18 18 20 22 23
3 4 5 4 4 3 1 3 3 3 2 1 1 1 7 7 5 8 8 9 7 8 12 11 10 11 11 11 10 9 9 8 9 8 12 20 25 28 30 31 33 33 33 34 34 34 34 35 36 36 36 35 34 33 32 31 30 28 27 24 22 23 24 24 23 22 22 22 21 21 21 20 19 18 18 18 18 18 18 19 20 21 21 21 22 21 21 23 23 20 20 22 21 20 21 23 23
3 4 5 4 4 4 2 2 1 3 3 1 3 4 6 5 6 9 8 7 6 7 10 10 9 10 10 10 9 9 10 10 10 9 9 15 21 26 30 32 32 32 33 34 35 36 36 36 36 37 37 36 35 34 32 31 29 27 27 24 21 22 23 22 23 23 23 23 22 21 20 21 20 18 18 18 19 19 18 19 20 21 21 21 22 21 20 21 21 21 23 23 20 20 22 23 22
3 2 4 6 8 5 5 5 5 4 3 3 2 1 6 5 5 9 7 5 8 7 9 11 11 10 8 8 9 9 9 9 9 10 10 14 19 24 27 29 30 32 34 35 36 36 36 36 36 36 36 36 36 34 33 32 31 29 28 27 26 25 25 25 26 26 25 24 23 21 20 20 19 18 19 18 18 18 18 17 17 17 18 20 20 19 21 23 24 24 23 21 19 20 22 22 23
3 4 2 6 8 7 8 7 4 2 3 3 2 4 5 6 4 8 6 6 10 8 8 11 10 9 8 8 8 8 8 7 7 8 9 12 17 19 22 25 29 32 34 34 34 34 34 34 35 35 34 35 34 34 33 32 32 31 31 30 30 29 28 26 25 24 23 23 22 21 19 18 17 17 17 16 16 15 15 15 15 16 17 19 19 19 22 24 23 21 20 21 21 20 21 23 25
4 3 4 9 10 8 8 8 4 3 3 3 4 3 3 4 5 8 4 4 7 7 9 10 8 8 8 8 7 7 7 7 7 7 7 11 16 19 22 26 29 30 30 29 30 31 32 33 33 34 33 32 32 32 33 33 33 33 32 32 30 29 28 24 21 19 18 18 18 17 16 15 15 14 13 12 12 12 12 12 13 14 16 17 17 18 19 19 19 19 20 21 20 20 23 25 26
5 4 7 8 8 8 7 6 4 1 2 2 5 1 2 5 6 6 3 2 4 7 9 10 9 9 8 8 8 7 6 6 6 7 7 9 13 17 20 23 25 25 26 26 27 28 29 30 31 32 32 31 30 31 32 33 33 32 32 33 31 28 25 21 18 16 14 13 13 12 12 12 13 12 11 10 10 10 10 10 10 9 11 12 12 13 13 13 15 17 19 18 18 22 24 25 25
4 4 7 5 5 5 5 5 4 3 2 4 7 2 2 5 6 4 2 1 5 7 8 8 9 8 8 8 6 5 4 4 4 4 5 6 9 12 13 16 18 20 22 23 24 23 24 26 28 30 31 30 30 29 30 32 32 31 31 31 29 26 22 19 16 14 13 12 12 12 11 11 11 11 11 10 10 11 10 11 11 9 9 9 10 11 11 12 12 12 13 13 15 18 21 22 24
5 6 7 7 6 5 4 3 4 3 2 6 7 3 3 3 5 4 4 4 6 7 6 7 6 5 6 6 6 6 5 4 3 2 3 5 7 8 10 12 14 16 17 19 21 22 22 23 25 27 29 29 29 28 29 31 31 29 28 27 26 24 22 19 16 14 12 12 13 13 13 12 12 12 12 11 11 12 11 11 12 12 13 12 13 13 13 14 14 13 12 12 12 11 13 16 19
6 5 5 4 4 5 5 4 3 2 5 6 4 1 3 3 5 5 5 6 6 7 6 7 7 6 6 5 5 5 5 5 4 3 4 5 6 7 9 12 13 14 16 17 20 22 22 22 23 25 26 26 28 27 27 28 28 26 25 24 23 21 20 18 17 14 12 12 12 12 12 11 9 7 7 6 6 6 6 6 6 8 10 11 12 12 12 13 14 14 13 13 13 13 13 14 14
5 5 6 5 2 3 2 3 1 2 5 4 2 1 2 5 7 8 9 10 8 7 7 7 8 7 6 6 6 5 5 5 5 5 5 5 6 8 10 12 12 14 16 17 20 22 22 23 23 25 25 25 26 26 25 25 25 25 23 22 20 18 17 17 16 14 12 11 10 8 7 5 4 2 3 3 3 3 3 2 3 4 4 5 7 8 10 10 11 12 14 15 15 15 16 15 15
4 6 6 5 3 3 1 4 2 3 5 3 2 1 2 4 6 10 13 14 10 7 7 7 8 8 8 7 6 5 5 5 5 5 5 5 7 9 11 12 13 14 15 17 19 22 23 23 24 25 25 24 25 24 24 23 22 21 20 19 17 17 16 15 14 13 11 9 8 7 7 6 6 5 5 4 3 3 2 2 2 3 3 4 6 7 8 8 8 9 10 11 11 11 12 12 12
4 5 6 6 5 4 4 4 2 4 3 3 3 1 3 3 4 7 10 9 4 3 4 3 5 5 6 5 5 5 4 4 5 5 5 5 8 11 12 12 13 14 15 16 18 20 22 23 23 23 23 22 23 22 22 22 19 18 18 18 17 16 16 15 13 11 10 9 9 9 10 9 8 6 5 4 3 4 4 4 5 5 6 6 7 6 6 6 7 9 9 9 9 10 11 11 11
3 3 6 4 5 5 3 4 6 5 1 1 2 2 4 4 6 8 4 3 3 1 1 4 5 3 5 5 4 5 5 5 5 5 4 5 8 11 12 12 13 14 14 15 18 20 21 22 22 22 21 21 21 20 21 21 20 19 19 19 19 17 16 15 13 12 11 11 10 10 10 8 7 6 5 5 4 4 4 4 4 4 4 4 4 5 5 5 6 7 9 11 11 11 11 11 11
1 3 4 5 4 7 5 2 2 4 2 3 2 3 5 3 6 8 1 1 2 2 1 3 5 4 5 5 5 5 5 5 5 5 5 6 8 10 11 12 13 13 13 14 17 19 20 22 23 22 21 21 21 22 22 22 21 20 19 18 18 17 16 15 14 14 13 12 11 10 9 8 7 5 4 3 3 3 4 4 4 4 4 4 4 3 3 4 5 6 8 9 11 12 12 11 10
4 3 5 3 2 4 4 2 2 3 2 4 1 4 4 2 4 6 2 3 7 6 5 5 5 5 5 6 6 6 5 5 5 5 5 7 9 11 12 13 13 13 12 13 16 19 19 21 22 22 22 22 22 22 22 21 20 20 18 17 17 17 17 16 15 14 13 12 11 10 9 8 7 7 8 9 9 10 10 10 10 9 9 9 9 9 9 8 8 8 9 9 11 12 13 14 14
4 3 3 4 3 2 2 3 1 1 3 4 3 4 3 4 5 3 2 7 9 9 7 7 7 7 7 6 6 6 5 5 5 5 5 6 9 12 13 14 14 14 14 15 18 19 20 21 21 21 22 21 21 21 21 21 20 21 20 19 19 18 17 16 14 13 13 13 13 12 12 12 12 13 13 14 14 14 14 14 14 14 14 14 14 14 14 13 13 13 13 13 13 14 16 17 17
2 1 1 2 2 4 3 3 3 3 3 4 3 2 3 6 6 5 8 10 11 10 8 8 9 8 8 7 7 7 7 6 6 6 5 5 9 12 14 15 15 15 16 17 20 21 21 22 22 23 23 22 23 23 23 23 22 22 21 20 19 18 17 16 15 15 16 16 16 16 16 16 17 17 16 17 17 16 16 16 17 16 17 17 16 16 16 16 15 15 16 16 16 17 17 18 19
2 2 3 2 0 2 2 1 3 4 3 3 2 2 5 6 5 7 10 10 9 9 9 9 10 8 8 8 8 7 7 7 6 6 5 6 10 13 14 16 16 17 17 18 20 22 23 24 24 25 25 25 25 24 24 23 22 21 21 20 20 19 19 18 18 19 19 20 19 19 19 19 19 19 18 18 18 17 17 17 17 17 17 17 17 17 16 16 16 17 17 17 18 18 18 19 20
5 4 6 6 4 4 3 3 2 2 3 4 4 3 7 6 4 6 8 7 7 8 9 9 9 9 9 8 8 8 7 7 6 6 6 7 11 14 15 16 17 18 18 19 21 22 23 24 24 25 25 25 25 25 24 24 23 23 22 23 23 22 21 21 22 22 22 22 22 21 20 19 20 19 18 18 18 17 17 17 17 17 17 17 17 17 17 17 17 18 18 18 19 19 20 21 21
Wind_Direction
272 273 293 324 330 335 322 101 55 318 87 53 239 110 214 162 116 109 80 68 69 27 68 95 59 56 86 104 122 100 50 326 241 158 148 151 148 150 153 153 148 145 143 139 136 121 114 113 109 116 118 116 108 104 101 85 86 94 96 100 100 99 97 93 92 88 85 83 84 86 84 84 80 78 82 83 83 81 80 79 77 78 79 78 77 78 80 80 81 82 82 82 84 90 94 94 96
284 283 311 328 323 353 291 111 81 323 53 23 286 148 172 68 69 106 103 87 105 143 105 84 59 57 90 116 125 86 45 6 57 116 100 131 141 146 152 152 148 147 143 140 134 122 119 116 112 119 122 121 114 107 103 92 88 93 96 100 102 102 99 95 92 90 87 87 88 87 86 85 83 82 83 82 81 81 83 81 79 80 78 78 78 79 81 82 83 82 83 82 83 91 97 98 98
301 303 337 345 322 136 328 44 105 254 82 154 263 267 113 78 89 119 112 110 126 123 92 70 58 53 78 83 56 58 68 11 66 88 109 132 137 144 152 150 146 146 142 139 132 125 122 118 117 123 124 120 117 110 108 108 96 91 95 97 102 101 99 98 94 92 90 89 88 88 88 88 88 86 83 80 81 81 83 84 83 81 79 80 80 81 82 82 83 83 83 82 84 88 94 100 99
310 324 331 349 13 46 37 50 189 145 104 176 207 287 94 111 122 114 114 123 125 102 80 64 54 18 77 89 76 68 97 62 87 98 121 138 141 147 150 146 144 144 142 139 131 127 121 119 118 123 122 117 115 110 110 113 104 97 97 96 100 102 100 97 93 92 90 89 89 90 91 92 95 90 86 85 84 84 82 83 84 82 80 82 82 82 83 83 84 83 83 84 86 87 93 101 99
311 336 315 328 57 43 70 70 233 96 180 189 147 225 134 127 123 113 117 113 104 94 94 94 78 359 71 89 117 86 107 117 121 120 122 137 143 145 146 144 144 144 143 138 131 128 120 118 116 120 121 118 116 114 115 109 103 101 102 101 100 103 102 96 93 92 93 92 93 93 94 96 96 91 89 89 88 88 86 85 85 84 83 84 82 83 84 84 84 83 83 85 85 90 100 103 98
327 348 321 250 134 142 102 43 323 325 244 182 123 174 153 131 128 119 105 76 60 77 88 95 104 86 70 34 67 76 177 141 130 130 129 138 144 144 146 145 145 144 143 139 134 128 121 118 116 121 124 124 125 125 125 116 109 107 107 106 102 104 101 95 93 93 95 96 97 98 98 97 94 94 94 91 89 90 89 86 84 84 85 85 83 84 86 85 85 85 83 85 86 97 107 103 97
341 348 357 58 340 59 109 185 225 252 301 130 127 152 152 135 132 118 108 84 31 36 56 88 117 98 79 117 80 25 97 141 133 136 138 139 143 145 148 148 145 146 144 141 136 130 123 118 118 123 127 129 131 129 126 120 117 113 112 110 107 107 102 95 93 94 96 98 101 101 99 98 97 99 101 95 90 90 88 85 84 85 86 86 84 84 84 85 85 85 86 86 90 104 111 105 98
345 332 63 79 357 5 120 186 230 196 41 57 128 143 145 146 138 119 119 111 88 81 47 80 104 92 33 73 99 19 86 131 134 137 140 138 143 146 149 149 147 148 146 143 138 133 126 121 122 123 128 131 132 131 125 120 120 119 116 116 114 111 107 100 97 98 99 103 105 103 102 101 100 99 97 94 89 88 86 85 87 87 88 89 88 86 83 85 85 85 88 90 98 109 113 111 103
349 190 0 81 138 302 260 190 238 213 84 82 125 140 141 147 135 117 109 101 135 135 122 144 93 100 116 64 93 38 91 127 133 136 140 140 144 147 149 149 149 149 147 145 141 137 130 126 125 124 129 134 136 136 129 118 119 120 116 118 118 117 113 106 102 101 103 107 106 105 105 105 102 99 93 92 91 88 87 88 90 89 88 88 88 89 87 87 87 87 88 92 103 109 112 114 109
2 163 41 95 136 281 291 293 203 234 148 124 130 143 143 143 123 115 112 116 136 117 158 148 93 115 133 88 94 105 119 132 134 137 144 145 146 148 150 152 153 150 148 147 143 140 134 131 128 127 132 138 141 140 132 121 118 119 117 119 122 123 117 111 106 101 108 112 109 109 110 108 105 103 100 98 94 88 87 90 94 93 90 91 91 92 93 92 91 90 90 93 101 105 107 109 109
14 296 97 125 103 220 247 213 179 220 175 122 79 136 145 138 113 109 112 113 120 116 161 91 100 127 109 94 281 138 139 139 138 143 150 149 148 152 152 153 154 149 150 149 145 143 138 135 131 129 133 139 144 142 137 128 125 125 124 125 125 127 121 113 108 106 115 117 113 117 118 116 114 114 115 111 104 99 95 96 98 96 94 93 94 95 97 97 95 95 94 94 97 99 101 103 106
48 297 86 140 201 207 211 151 173 181 83 98 81 299 125 119 108 120 119 118 126 113 161 133 124 136 99 97 245 147 143 145 145 148 151 146 146 153 153 152 152 150 152 150 148 146 140 139 136 132 132 139 145 146 146 138 134 132 130 132 131 130 125 114 108 113 122 124 122 124 126 124 124 125 125 120 116 112 100 94 97 98 101 99 95 96 98 99 100 100 96 96 97 97 98 102 108
154 222 104 181 210 185 151 140 173 137 107 171 172 264 78 92 114 144 133 128 140 120 191 210 133 103 100 119 160 151 147 149 150 151 149 138 143 150 149 148 148 151 155 154 151 149 145 142 141 139 135 139 144 148 153 147 138 133 130 136 137 133 130 123 115 120 127 132 129 126 130 129 128 128 128 128 126 119 105 100 103 106 107 105 104 101 101 104 104 102 98 98 99 99 99 100 106
197 203 127 214 276 163 133 132 175 133 164 228 177 209 71 69 110 140 127 118 134 148 189 217 116 94 101 130 135 195 160 154 154 152 148 137 142 144 144 145 144 148 154 158 156 153 150 146 145 146 143 140 143 146 152 151 143 137 130 129 134 134 135 132 122 122 128 132 129 127 134 134 133 132 131 133 132 125 119 121 116 113 106 96 108 109 106 108 106 104 103 101 101 99 99 99 100
188 256 104 193 310 301 174 151 170 137 158 202 178 151 82 57 79 87 113 122 119 214 138 68 100 103 150 161 181 204 166 157 155 152 148 140 141 139 140 142 142 145 152 160 161 160 155 151 151 150 151 146 144 145 148 150 149 147 137 125 123 123 130 135 127 122 125 127 127 130 138 140 140 139 135 133 138 137 133 140 134 119 102 80 104 115 111 111 112 110 106 104 102 98 96 97 95
153 94 47 214 258 245 224 149 137 122 173 194 173 124 91 17 45 80 114 134 112 327 53 45 24 92 162 174 173 172 160 157 156 155 148 140 141 139 139 142 145 148 157 162 160 164 162 159 160 157 156 153 150 148 147 149 153 154 147 134 122 116 119 129 134 129 125 124 124 130 140 146 147 147 145 140 143 154 154 157 155 131 108 86 103 118 116 118 120 116 113 109 104 100 98 96 93
65 84 44 269 234 211 218 161 158 149 173 185 162 119 113 44 9 87 0 89 102 62 57 33 26 62 120 156 154 155 154 157 159 156 146 139 142 140 141 147 150 154 164 169 164 166 167 166 167 164 159 157 158 154 154 152 152 156 152 145 133 124 119 122 134 135 128 123 120 122 127 135 147 151 154 158 155 165 176 170 160 141 118 102 107 122 120 121 124 122 119 114 106 103 96 88 93
71 118 172 242 231 209 226 180 174 145 145 169 168 140 128 142 132 142 58 76 98 80 65 56 51 50 78 123 142 148 153 159 158 155 148 141 144 143 146 154 159 165 171 175 175 174 174 171 170 171 162 160 163 160 163 161 156 156 155 154 147 141 132 127 132 136 135 125 119 115 109 107 124 134 135 164 170 171 179 176 160 142 128 116 118 126 123 123 126 126 121 115 109 106 93 84 94
137 166 178 233 220 239 282 161 152 137 146 157 167 155 140 167 165 131 116 124 121 92 58 63 77 68 88 118 137 145 154 159 158 157 155 149 150 151 152 158 167 178 181 179 180 182 183 176 176 177 165 166 175 167 169 171 165 161 160 162 158 156 150 143 138 137 138 129 124 118 113 113 108 108 100 147 173 175 180 179 171 149 137 134 134 134 132 134 135 132 126 118 112 110 96 85 89
185 162 202 250 220 131 349 107 152 149 145 144 168 164 143 179 159 131 146 148 145 138 143 106 115 132 123 129 140 146 156 160 161 162 162 160 159 160 160 164 171 180 185 180 179 183 187 183 181 181 168 174 186 180 179 181 175 171 168 170 170 171 166 156 149 140 137 133 130 128 138 153 167 272 58 206 184 183 185 181 184 174 161 165 159 154 150 150 147 142 136 127 117 112 101 85 85
218 172 191 246 215 107 332 311 134 139 140 143 151 125 130 174 150 143 136 137 195 193 182 170 160 158 149 149 150 153 159 164 168 169 170 169 167 168 168 171 174 179 183 182 182 183 187 189 186 182 175 180 190 191 190 187 183 180 172 174 179 184 184 171 159 148 141 139 137 141 160 171 194 246 254 267 238 193 192 188 190 183 181 189 179 175 169 164 161 155 148 142 131 126 128 120 137
257 227 198 240 204 127 244 275 115 137 132 126 130 126 148 156 143 153 132 146 220 217 202 179 161 160 159 159 157 159 164 169 174 176 179 176 175 176 175 176 176 179 183 185 187 186 188 191 189 185 183 188 193 197 194 186 190 186 174 172 173 176 186 185 169 160 150 148 149 148 161 182 213 237 246 257 231 187 185 196 203 197 192 194 184 186 183 177 180 175 167 165 164 161 163 177 210
217 258 230 303 242 151 206 254 209 135 124 130 145 150 145 119 150 170 137 176 211 210 209 170 158 162 159 156 157 163 171 176 179 182 185 182 181 182 181 181 180 183 186 187 189 190 192 193 192 189 189 192 194 198 195 185 190 187 179 180 177 170 170 185 179 168 172 162 163 164 168 200 228 230 234 245 221 187 175 203 210 204 194 181 180 190 194 194 209 207 193 192 204 204 198 211 221
183 253 277 2 36 132 179 211 108 114 126 153 144 133 137 137 170 159 140 201 200 197 167 144 153 156 152 154 163 171 177 182 184 186 188 187 186 185 186 186 185 188 189 188 189 192 195 196 195 192 191 193 193 196 195 187 186 186 192 196 191 185 173 185 189 178 200 197 180 186 188 208 227 227 228 234 225 207 214 236 213 210 207 194 198 213 221 221 243 249 230 219 225 231 231 233 237
201 233 236 131 70 22 347 78 83 97 116 133 112 117 157 163 157 141 178 197 187 164 114 124 141 148 153 162 169 174 180 185 186 185 190 193 192 189 190 191 189 191 191 189 189 192 196 198 197 195 193 194 194 194 194 191 187 188 198 201 194 196 191 192 196 191 211 224 211 212 214 212 212 222 230 230 229 221 230 247 235 224 230 232 227 225 233 239 250 261 260 247 240 243 247 247 249
214 199 182 164 151 156 160 68 94 103 109 119 109 107 154 188 156 166 200 188 182 142 117 127 138 149 164 168 172 175 180 186 186 186 189 193 195 195 196 196 192 193 194 191 190 192 195 199 199 199 198 198 198 195 194 195 192 191 195 197 194 196 198 199 203 200 211 228 227 226 234 225 209 215 230 235 236 227 226 239 241 234 236 242 241 231 229 238 248 257 261 257 253 254 257 257 258
197 151 120 128 149 180 175 146 141 113 90 125 121 127 169 288 158 236 227 181 160 126 125 141 145 158 172 170 178 178 181 188 188 187 186 190 196 199 201 200 195 194 195 192 193 195 195 198 200 201 203 202 202 199 197 198 198 196 197 199 199 201 201 201 207 207 210 223 227 228 238 237 219 212 223 237 243 237 227 230 236 238 239 240 244 241 235 240 248 257 261 259 258 260 263 263 264
145 121 89 100 137 291 125 140 180 114 85 137 114 113 27 10 161 225 218 170 154 136 142 156 155 166 174 174 182 180 188 193 189 187 186 190 195 198 202 202 196 193 194 194 195 195 196 199 200 201 203 204 203 203 202 202 202 202 203 205 205 206 206 206 208 210 212 218 224 227 235 243 232 216 215 227 240 244 235 231 235 239 243 245 246 246 244 247 252 258 262 260 261 264 264 263 263
149 132 113 136 30 347 165 156 201 120 132 180 120 87 329 286 229 227 190 161 151 142 152 167 169 174 176 177 179 183 191 190 189 192 194 195 195 196 200 203 199 194 195 196 195 196 198 199 199 200 203 205 205 204 204 204 206 206 207 210 211 209 211 214 212 210 212 216 222 228 233 240 240 228 218 217 229 241 240 236 239 244 248 249 247 248 249 251 254 257 260 259 260 262 263 263 261
160 137 126 138 45 290 225 186 176 114 137 201 142 125 260 237 238 230 175 157 140 145 167 178 183 183 181 180 178 188 190 186 191 198 199 199 197 198 199 201 200 196 195 197 197 198 199 199 200 202 205 206 207 206 205 206 208 209 209 212 215 213 214 219 217 214 216 215 219 225 230 235 237 235 227 220 221 231 237 238 241 248 253 252 248 249 251 253 255 258 259 258 260 262 265 266 260
155 134 125 134 151 247 253 193 144 135 246 131 119 176 246 249 257 228 184 168 152 165 186 184 191 196 190 187 182 189 191 190 195 199 201 201 200 200 201 201 201 199 198 198 199 200 200 201 202 203 204 206 207 207 208 208 210 210 211 213 215 217 219 223 221 218 218 219 221 223 227 232 234 235 230 225 226 231 237 241 244 247 251 252 251 250 253 256 257 260 261 261 263 265 266 267 263
147 142 208 177 162 242 286 229 168 154 214 95 115 185 257 264 260 215 180 169 161 171 188 188 193 200 195 193 189 190 196 197 198 200 202 203 203 203 202 202 202 203 203 201 200 200 201 203 203 203 202 204 206 207 208 208 210 210 212 215 215 217 221 226 227 223 220 222 227 226 226 229 232 235 234 230 232 235 240 244 246 248 248 249 252 254 255 258 259 261 263 264 266 268 269 271 270
315 130 188 195 167 210 289 267 234 175 140 148 156 182 251 267 239 204 181 163 160 167 189 198 197 201 196 190 189 190 195 199 202 203 203 203 204 205 205 204 204 205 205 203 199 198 200 202 203 203 203 205 206 207 209 208 210 211 213 215 216 218 222 226 230 229 225 227 231 232 231 232 233 236 237 235 235 238 241 244 245 244 245 247 252 256 258 261 262 262 265 268 269 271 272 273 275
294 74 169 204 167 171 191 268 259 181 157 192 200 200 244 269 235 204 205 171 162 173 197 209 204 204 200 188 188 190 193 199 204 204 203 202 203 205 206 207 206 205 206 205 201 198 200 201 203 205 206 208 209 210 212 213 213 213 214 216 218 220 223 227 231 232 232 233 235 236 237 240 240 241 242 242 243 244 246 247 247 245 245 246 250 255 258 260 261 264 268 272 271 270 271 274 276
205 193 173 198 157 169 188 220 225 171 176 193 179 220 250 265 271 227 229 193 175 191 202 207 201 198 200 194 192 194 196 205 209 205 203 202 202 205 207 208 208 206 206 206 205 201 200 202 204 206 207 208 210 212 213 215 217 216 216 216 220 223 225 227 230 233 233 234 238 240 242 243 241 243 246 248 250 252 252 251 251 250 249 250 253 256 258 257 259 264 269 272 272 270 271 274 277
179 191 176 169 168 207 213 230 257 162 162 200 185 213 238 243 262 248 241 212 192 213 217 213 207 196 198 198 199 200 201 210 211 207 204 201 202 204 206 207 207 207 206 206 205 204 202 202 203 204 206 207 208 210 211 211 213 215 216 216 218 222 224 227 231 233 234 235 240 243 245 245 245 245 245 247 249 251 253 254 254 254 253 252 254 256 257 257 259 264 267 271 275 274 273 274 275
182 173 185 194 179 232 264 282 307 86 144 220 205 217 246 239 244 247 234 208 208 227 228 225 221 202 198 199 203 205 206 214 210 206 205 202 203 204 204 204 204 204 205 205 205 205 204 203 202 203 204 205 206 208 208 208 209 211 213 215 217 219 221 225 230 232 234 238 241 243 244 247 248 247 246 247 248 249 251 252 255 261 261 254 252 257 261 261 262 263 263 265 269 272 274 276 275
219 189 190 216 195 210 264 262 312 4 139 242 241 227 256 247 240 253 225 195 214 218 212 222 222 213 206 200 207 209 209 216 205 205 204 200 200 201 201 201 201 202 203 204 206 206 206 205 204 204 204 205 207 208 208 209 210 210 210 212 215 217 219 222 226 230 234 240 243 245 246 247 249 251 250 249 249 248 248 248 256 267 267 257 253 259 264 264 261 256 253 255 261 267 272 276 275
214 202 182 211 212 174 286 313 337 13 130 258 322 220 253 256 247 254 222 200 217 212 204 210 209 210 214 206 210 209 205 206 197 201 201 197 196 196 197 199 200 202 203 203 206 206 205 205 206 206 205 206 207 209 210 211 213 212 212 212 213 216 220 223 227 231 235 239 242 244 247 248 250 251 252 252 251 248 247 250 259 269 266 256 251 256 265 265 259 251 249 255 261 266 270 272 271
187 171 171 209 208 154 225 284 334 16 115 181 45 314 269 271 267 263 234 209 218 217 212 215 206 203 209 209 207 198 197 201 199 201 196 193 194 193 195 197 198 200 201 201 202 204 204 205 206 206 206 207 207 208 211 213 214 214 216 218 217 218 222 226 229 233 235 236 238 239 242 244 246 250 254 255 255 254 254 256 260 264 263 258 256 261 269 269 264 261 261 262 263 265 269 270 268
245 162 159 179 188 172 166 172 96 13 9 87 71 0 298 258 244 256 247 220 224 223 216 225 228 219 218 218 211 202 199 193 190 197 194 189 190 192 195 198 198 198 199 200 201 202 203 205 206 207 207 208 208 209 210 211 211 211 212 214 218 220 222 224 224 226 228 230 232 233 234 237 242 250 257 259 260 259 259 259 260 262 262 261 260 264 269 272 271 269 266 264 266 269 270 271 271
279 230 185 173 171 155 119 121 93 47 329 295 108 6 292 282 247 245 249 238 235 223 209 221 229 228 228 224 218 215 211 201 194 193 189 187 189 193 197 199 199 199 201 202 203 203 204 205 206 207 208 209 209 209 209 209 208 207 206 205 208 210 212 215 217 219 220 224 228 230 231 234 240 248 253 257 259 258 257 259 262 265 266 263 262 268 271 267 263 263 265 269 274 278 274 269 268
235 260 207 144 138 128 131 138 110 124 233 288 99 165 256 315 298 253 244 225 236 233 221 228 226 220 220 214 213 211 205 204 204 196 187 188 191 192 197 201 201 203 205 205 205 206 206 207 206 207 208 209 209 209 208 208 208 208 207 206 206 206 205 208 213 218 220 224 227 230 232 235 240 244 247 252 256 256 257 261 267 270 270 266 263 267 268 264 261 265 274 274 274 279 275 264 263
217 241 121 123 129 140 154 143 123 179 199 335 19 131 222 291 277 271 253 198 244 252 235 239 232 222 219 212 211 207 200 195 191 190 187 192 196 198 201 204 205 207 207 206 207 209 210 210 210 209 209 210 210 209 208 208 207 208 208 208 208 208 208 207 209 213 218 223 225 228 232 235 239 242 244 249 252 254 257 263 271 272 269 267 266 270 274 275 274 277 279 275 274 278 272 262 262
231 197 130 136 142 146 148 126 110 107 115 304 307 105 186 267 272 299 325 171 251 251 233 237 230 223 219 216 218 213 208 196 183 189 192 194 199 205 210 211 212 212 210 208 209 210 212 213 213 211 210 210 209 208 208 208 209 209 208 208 208 209 210 210 211 214 216 217 217 218 222 224 227 229 232 236 240 247 254 258 266 273 267 265 269 277 285 285 282 280 279 277 278 280 273 266 264
208 141 101 81 79 94 103 110 107 64 82 236 261 210 174 272 280 299 330 223 245 243 240 241 232 229 223 215 209 188 170 156 162 184 191 189 192 198 207 209 211 213 213 212 210 208 209 210 210 210 209 209 208 207 207 208 209 210 209 208 207 208 210 211 210 210 208 206 208 208 206 205 207 212 217 223 231 241 252 259 266 273 269 265 269 275 282 288 294 298 297 293 290 288 283 276 271
130 92 69 51 32 39 49 61 92 83 278 249 248 212 163 274 281 244 222 224 219 220 246 255 237 223 209 196 180 165 153 151 158 143 138 151 162 173 182 188 193 199 203 207 207 205 203 203 204 205 206 206 206 206 206 206 207 208 208 207 207 210 210 206 199 195 194 196 199 201 206 212 215 219 225 228 236 246 258 268 271 270 266 265 271 278 283 288 293 298 301 301 298 302 302 291 283
100 89 95 75 10 13 21 359 44 132 252 260 258 213 156 221 263 249 248 261 231 205 224 237 221 199 188 178 172 171 167 171 172 155 149 150 155 166 174 177 182 188 193 196 199 200 199 198 198 197 199 201 202 203 203 204 205 206 207 207 209 209 204 199 196 193 191 191 194 202 211 219 223 227 230 231 239 249 266 289 296 290 278 272 273 277 279 281 286 291 295 297 296 299 302 302 301
80 110 119 105 31 21 18 299 318 214 244 265 285 284 190 230 254 262 270 275 257 223 218 212 196 190 188 179 174 170 164 170 174 173 177 179 181 184 182 183 187 190 195 197 196 197 197 196 195 194 194 195 198 200 200 201 203 204 207 207 207 204 199 197 197 196 197 199 201 205 204 199 196 189 183 197 215 218 234 292 339 350 337 312 298 291 289 286 282 284 289 294 296 298 298 300 303
125 144 138 133 127 82 215 253 285 248 255 279 295 288 254 267 268 251 251 257 249 227 228 208 182 181 185 182 173 161 158 168 175 178 183 196 198 191 184 185 190 193 196 198 197 197 196 194 193 192 191 191 194 195 195 195 195 198 201 200 197 194 191 191 192 194 198 197 189 179 166 158 160 161 164 172 179 192 213 252 297 321 324 321 319 319 325 328 318 308 303 298 299 303 304 307 310
170 164 139 150 157 143 190 213 199 222 261 292 300 280 190 202 259 245 245 270 276 210 229 188 164 174 165 161 160 153 155 160 160 162 171 186 186 180 178 179 183 187 189 192 193 193 192 190 189 187 184 184 188 188 187 186 182 181 183 181 179 179 181 184 184 186 187 179 168 162 158 159 165 168 173 184 197 218 241 258 269 283 293 296 302 313 331 343 343 339 335 326 315 306 299 298 301
213 147 118 164 179 147 153 182 177 172 165 271 249 240 209 203 273 275 262 321 8 53 43 114 136 155 139 150 170 167 167 162 152 144 142 153 157 160 163 166 171 176 180 186 187 185 184 182 179 177 174 174 177 177 176 175 170 167 170 173 176 176 179 180 175 172 177 177 175 175 175 179 188 197 206 219 233 241 250 258 266 278 293 296 293 295 305 315 325 333 335 334 331 325 317 310 305
178 131 163 207 169 121 122 193 171 108 146 245 206 243 289 307 289 292 268 198 283 303 284 163 169 173 158 177 194 186 181 172 160 153 148 140 136 141 147 151 157 161 164 173 179 179 176 171 167 164 162 163 166 167 167 169 169 167 168 173 177 176 174 173 171 172 177 181 183 185 186 183 181 182 172 160 143 116 102 97 92 83 66 53 48 34 360 344 341 340 339 340 343 344 344 343 336
122 159 202 194 116 98 114 160 11 59 194 266 217 215 275 287 265 318 12 216 256 259 240 231 224 205 194 205 205 195 186 174 166 156 151 143 133 132 137 142 146 147 147 152 165 172 171 168 167 164 163 164 167 168 168 171 172 169 165 164 165 166 167 169 173 175 176 175 171 166 161 149 135 125 114 108 104 99 95 91 86 81 75 67 62 57 50 43 34 25 16 8 2 0 3 5 3
135 182 189 126 141 208 139 154 185 172 216 274 283 237 247 209 221 297 272 222 239 239 225 227 227 211 205 210 204 195 178 164 165 157 151 146 139 135 136 138 139 140 137 137 149 160 163 166 168 166 166 165 165 166 166 166 166 163 161 161 163 165 167 169 169 167 162 155 146 139 132 123 115 111 106 103 100 96 92 88 84 80 74 69 65 61 56 50 45 40 34 28 20 15 14 13 10
35 65 92 90 148 178 173 171 160 156 203 249 293 310 257 231 217 208 216 220 221 220 214 218 221 209 201 200 191 187 179 173 173 165 160 147 140 138 137 139 140 140 138 137 144 150 152 155 157 156 157 156 157 159 159 159 160 160 160 161 162 164 164 161 156 152 146 136 130 126 120 114 111 107 102 100 97 93 90 85 81 77 72 68 63 59 56 51 47 42 36 30 24 20 15 12 10
135 130 160 184 152 128 159 207 137 129 166 204 232 278 264 251 214 202 220 227 219 212 206 216 223 210 203 199 186 184 182 182 176 161 155 142 135 134 135 138 139 139 139 140 144 147 147 150 152 152 152 153 154 156 157 156 156 157 156 154 154 154 152 148 143 139 133 127 123 119 115 112 108 104 99 97 93 89 86 81 77 73 68 65 59 55 51 45 41 36 31 25 19 15 11 6 3
168 175 183 185 170 125 143 239 224 146 167 178 176 237 268 258 213 214 230 229 229 222 206 214 223 208 204 200 190 188 183 181 174 156 149 142 137 135 135 136 138 138 139 140 143 146 147 149 151 152 153 153 153 154 154 153 152 152 150 147 147 145 142 139 135 130 125 121 118 114 112 111 106 101 98 95 91 87 84 78 75 71 65 61 55 49 44 37 33 29 24 20 14 8 5 360 357